星链-3998 (STARLINK-3998 )

导读 | 豆包AI

STARLINK-3998是美国SpaceX公司星链(Starlink)星座的一员,于2022年5月14日发射升空。作为低轨宽带通信卫星,它属于星链大规模组网的组成部分,旨在为全球偏远、基础设施匮乏地区提供高速低 latency的互联网接入服务。该卫星采用量产化设计,配备霍尔推进器,具备自主避撞能力,寿命末期会主动离轨坠入大气层销毁,服务全球互联与宽带覆盖。

基本信息
目录编号:
52610
目录名称:
STARLINK-3998
国际标识:
2022-052N
轨道中心:
EARTH
卫星名称:
星链-3998
卫星全名:
星链-3998 (STARLINK-3998 )
卫星状态:
在轨 (已飞行1447 天)
发射日期:
2022-05-14 UTC
国别 :
美国 (US)
星等 :
--
轨道信息
数据来源 国际轨道数据
星历时间: 2026-04-30T13:18:49+0800
16小时前
查看轨道信息
半长轴: 6917.893km
偏心率: 0.0001586
轨道倾角: 53.218°
近地点辐角 93.207°
升交点赤经 52.783°
平近点角 266.911°
近地点: 538.658km
远地点: 540.854km
周期: 95.438分钟
每日圈数: 15.088362
详细信息
固有亮度:
5
最大亮度:
2.5
卫星平台:
Starlink v1.5
覆盖范围:
全球
运营商:
太空探索技术公司
运营商所在国:
美国
制造商(研发单位):
太空探索技术公司
制造商所在国:
美国
使用方式:
暂无
卫星简介
星链(Starlink)计划是由太空探索技术公司(SpaceX)提出的一个巨型低轨卫星互联网星座项目,计划在2019年至2024年间在太空搭建由约1.2万颗卫星组成的“星链”网络,其中1584颗将部署在地球上空550千米处的近地轨道,并从2020年开始工作。该卫星仍在工作。
2D轨道图
3D轨道图
轨道高度分析图
轨道倾角分析图
轨道综合分析图
查看轨道综合分析图